SCP
0 0 0 0 0 0 0 0 0 0 0 0 0 0 1 1 1 1 1 1 1 1 1 1 1 1 1 1 1 1 1 1 2 2 2 2 2 2 3 3 3 4 3 3
0 0 0 0 0 0 0 0 0 0 0 0 0 0 1 1 1 1 1 1 1 1 1 1 1 1 1 1 1 1 1 2 2 2 2 2 2 2 3 3 3 3 3 3
0 0 0 0 0 0 0 0 0 0 0 0 0 0 1 1 1 1 1 1 1 1 1 1 1 2 2 2 2 2 2 2 2 3 3 3 3 2 2 3 3 3 3 3
0 0 0 0 0 0 0 0 0 0 0 0 0 0 0 1 1 1 1 1 1 1 1 1 1 2 2 2 2 2 2 3 3 3 3 3 3 3 3 3 4 4 4 3
0 0 0 0 0 0 0 0 0 0 0 0 0 0 0 0 0 1 1 1 1 1 1 1 1 2 2 3 3 3 3 3 3 3 3 3 3 3 4 4 4 4 4 3
0 0 0 0 0 0 0 0 0 0 0 0 0 0 0 0 0 0 1 1 1 1 1 1 2 2 3 4 4 4 4 4 5 4 4 4 4 4 4 4 4 3 3 3
0 0 0 0 0 0 0 0 0 0 0 0 0 0 0 0 0 0 1 1 1 1 1 1 2 3 4 5 6 5 5 6 6 5 5 4 4 3 3 3 2 2 2 2
0 0 0 0 0 0 0 0 0 0 0 0 0 0 0 0 0 1 1 1 1 1 1 1 1 3 4 6 7 7 7 6 6 5 5 5 4 3 2 2 2 2 2 2
0 0 0 0 0 0 0 0 0 0 0 0 0 0 0 0 1 1 1 1 1 1 1 1 1 2 4 7 8 8 7 6 6 5 5 4 3 3 2 2 2 2 3 3
0 0 0 0 0 0 0 0 0 0 0 0 0 0 0 0 0 1 1 1 1 1 1 1 2 2 4 6 7 7 7 6 5 4 3 3 2 2 2 2 3 3 3 4
0 0 0 0 0 0 0 0 0 0 0 0 0 0 0 1 1 1 1 1 1 1 2 2 2 2 3 4 5 6 6 6 4 3 2 2 2 2 3 3 3 4 3 3
0 0 0 0 0 0 0 0 0 0 0 0 0 0 1 1 1 1 1 1 2 2 2 3 3 3 3 4 4 5 6 5 3 2 2 2 2 3 3 4 4 3 3 2
0 0 0 0 0 0 0 0 0 0 0 0 0 0 1 1 1 1 2 2 3 4 4 4 4 4 4 4 4 5 5 5 4 3 2 3 3 3 4 4 3 3 2 2
0 0 0 0 0 0 0 0 0 0 0 0 0 0 1 1 1 2 2 3 4 4 4 5 5 5 4 4 5 5 5 5 4 4 4 4 5 4 4 3 3 2 2 3
0 0 0 0 0 0 0 0 0 0 0 0 0 0 1 1 1 2 2 3 3 4 5 5 6 5 5 5 5 5 5 5 5 5 5 5 5 4 4 3 3 3 4 4
0 0 0 0 0 0 0 0 0 0 0 0 0 1 1 1 1 2 2 3 3 4 5 7 7 7 6 5 4 4 4 3 4 4 5 5 4 4 4 4 5 5 5 5
0 0 0 0 0 0 0 0 0 0 1 1 1 1 1 1 1 2 2 3 3 4 5 7 8 7 6 4 4 3 3 3 3 4 4 4 5 6 6 6 6 7 7 6
0 0 0 0 0 0 0 0 0 1 1 1 1 1 1 1 1 2 2 3 4 5 6 7 8 7 6 5 4 3 3 3 3 4 4 4 6 7 6 6 6 6 6 7
1 1 0 0 0 0 0 0 1 1 1 1 1 1 1 1 1 2 3 4 5 5 5 6 7 7 6 5 5 4 4 3 3 3 4 4 5 5 5 4 4 5 5 6
1 1 1 0 0 0 1 1 1 1 1 1 1 1 2 2 2 3 4 5 5 5 5 5 6 6 6 6 6 5 4 4 3 3 4 4 5 4 3 3 3 4 5 6
1 1 1 1 0 0 1 1 1 1 1 1 1 2 2 2 2 3 5 5 5 5 5 5 5 5 6 6 6 5 5 4 4 4 4 5 5 4 4 4 4 4 5 5
1 1 1 1 0 1 1 1 1 1 1 1 1 2 2 3 3 3 4 5 5 5 5 4 4 5 5 6 6 5 5 5 4 4 5 6 6 5 5 5 5 5 5 5
1 1 1 1 1 1 1 1 1 1 1 1 2 2 3 4 3 3 4 5 5 5 5 4 4 5 5 5 6 5 5 5 5 5 5 6 6 6 6 5 5 5 5 5
1 2 2 2 1 1 1 1 1 1 1 1 2 3 3 3 3 4 5 5 6 6 6 5 5 5 6 6 6 6 6 6 6 6 6 6 6 6 5 5 4 4 4 4
1 2 2 2 2 1 1 1 1 1 1 1 2 3 3 3 3 5 6 6 7 7 7 7 7 6 7 8 7 7 6 7 6 6 6 5 5 5 5 5 4 4 4 4
1 2 3 3 3 2 1 1 1 1 1 1 2 2 2 2 4 5 7 8 8 8 9 8 7 7 8 8 8 7 7 7 6 5 4 4 3 4 5 5 4 4 4 4
Wind_Speed
5 5 3 2 3 3 3 2 1 3 2 2 1 1 4 7 8 7 7 7 7 6 6 6 6 5 4 4 3 3 3 3 2 1 1 1 2 1 1 1 2 1 1 1
7 5 2 2 2 3 3 2 1 2 1 2 1 1 3 6 8 7 6 7 7 7 7 7 7 6 6 5 5 4 4 3 3 2 1 0 0 0 1 1 2 1 1 1
8 1 1 4 4 4 3 3 2 1 2 4 4 4 5 6 7 7 7 7 7 7 7 8 8 8 7 6 6 5 4 4 3 3 2 2 2 1 1 1 1 1 1 1
6 3 4 6 5 5 3 2 3 3 5 1 3 2 5 6 7 8 8 8 8 8 7 8 9 8 8 7 6 6 5 5 4 4 2 2 1 1 1 0 1 1 1 0
6 5 6 7 4 6 3 2 4 5 6 5 3 4 3 6 6 8 9 9 8 8 8 8 8 8 8 7 7 6 6 5 5 4 3 3 2 1 1 1 2 0 0 0
5 4 5 4 3 5 3 5 5 7 7 4 2 5 1 2 2 5 7 8 8 8 8 7 8 8 8 8 7 7 6 6 5 5 4 3 2 1 1 1 0 1 1 0
9 8 6 5 6 7 8 8 6 6 5 2 0 4 2 2 1 2 5 7 8 8 8 8 8 9 9 9 8 7 7 6 6 6 5 4 4 3 3 2 1 2 1 0
10 9 8 7 7 5 7 9 7 6 5 2 4 3 1 1 1 2 3 4 6 7 8 8 9 9 9 9 9 8 8 7 6 6 5 4 4 3 2 2 2 1 1 1
7 6 5 5 5 7 6 7 7 8 7 7 3 2 3 3 4 4 5 5 6 7 7 8 9 9 9 9 9 9 9 8 7 6 5 4 4 2 1 2 2 1 1 1
6 6 6 5 6 5 7 6 6 7 7 8 5 5 2 3 4 5 5 5 5 6 7 7 7 8 7 8 8 8 9 8 7 6 5 4 4 3 3 2 1 1 1 1
8 8 7 8 9 9 8 8 8 7 7 9 7 3 3 1 2 3 4 5 5 6 7 7 7 7 8 8 9 9 8 8 7 6 5 4 4 4 4 3 3 2 2 2
7 9 8 9 5 6 9 10 10 9 8 8 9 4 4 1 1 2 3 4 5 5 6 7 7 7 7 8 8 8 8 7 7 6 5 5 4 4 4 3 3 3 3 3
5 7 9 9 9 9 9 10 10 10 9 9 10 5 4 2 1 1 2 4 5 5 6 6 6 7 7 7 7 7 7 7 6 6 6 5 5 4 4 3 3 3 3 3
7 9 11 11 6 5 9 10 10 11 9 10 10 9 5 2 2 2 2 4 6 6 6 6 6 6 6 6 6 6 6 6 6 6 5 5 4 4 4 4 4 4 4 4
7 9 10 10 8 8 9 10 11 12 12 12 11 10 6 4 4 2 3 4 5 6 6 6 6 6 6 6 6 5 6 6 6 6 5 5 4 4 4 4 4 4 4 4
5 7 9 11 10 11 12 12 12 12 12 13 12 10 5 4 2 2 3 5 6 6 6 6 6 6 6 6 6 5 5 5 6 6 5 4 4 4 4 4 4 4 4 4
6 7 9 11 10 12 15 12 13 12 10 11 11 7 4 4 3 2 2 4 5 5 6 6 6 6 6 6 6 6 6 6 6 6 5 4 4 4 4 4 4 4 4 5
7 8 8 10 10 16 6 4 7 9 8 9 9 7 5 5 4 2 2 3 4 4 5 6 5 6 6 6 5 5 5 6 6 6 5 5 4 4 4 4 4 5 4 4
8 9 9 10 13 13 8 6 7 9 8 6 7 6 5 5 4 3 0 1 2 3 4 4 5 5 5 5 5 5 5 5 5 5 5 5 5 4 4 4 4 4 4 4
8 9 10 10 13 14 6 4 4 8 9 2 4 4 3 4 6 1 1 1 1 1 2 3 4 5 4 4 4 4 4 5 5 5 5 4 4 5 5 5 5 4 4 5
10 10 12 13 13 9 1 2 5 9 2 3 2 2 3 3 5 4 2 1 1 1 2 3 4 4 4 4 4 4 4 4 3 3 4 4 5 5 5 5 4 4 4 4
10 9 10 11 13 8 2 4 4 2 3 3 3 3 3 3 3 3 2 1 1 2 3 3 4 3 3 4 4 4 4 3 3 3 4 5 5 5 4 4 4 4 5 5
8 6 5 5 4 2 0 0 1 2 3 4 4 4 3 3 3 3 2 2 2 2 2 3 4 4 3 4 4 3 2 2 3 3 4 4 5 4 4 5 5 5 5 5
5 4 5 6 5 4 3 2 2 2 4 4 5 4 3 3 3 3 2 2 2 1 2 2 3 3 3 3 3 2 2 2 3 3 3 4 4 5 4 4 5 5 5 5
4 5 7 8 6 5 5 3 3 3 4 5 5 4 4 3 3 2 2 1 1 1 1 2 2 2 2 2 2 2 2 2 3 3 2 3 4 4 3 4 4 5 3 3
7 7 8 6 4 6 4 3 4 4 4 5 5 5 4 4 3 3 2 1 2 1 1 1 2 2 2 2 2 2 1 2 3 3 3 3 3 2 4 4 4 3 4 3
Wind_Direction
200 230 243 295 314 332 316 315 46 59 64 251 223 197 157 170 192 192 185 184 187 192 186 185 191 194 187 182 186 191 198 175 188 176 179 167 155 155 132 125 98 110 116 107
210 225 259 286 248 252 254 257 136 117 102 270 300 230 170 183 197 201 194 192 192 187 185 185 189 191 190 187 189 191 195 186 193 171 166 139 54 136 99 93 91 95 107 99
236 212 187 232 221 235 253 284 314 334 193 210 260 191 167 176 195 202 208 203 199 195 191 184 189 194 194 193 193 192 194 189 191 188 176 161 167 182 134 117 112 92 96 85
231 219 228 232 233 253 249 299 280 258 258 215 291 298 145 171 191 200 206 203 201 196 196 190 188 190 195 193 188 187 190 192 189 194 194 196 198 155 93 105 94 98 100 80
209 203 223 238 247 259 299 284 255 258 266 272 242 282 124 166 198 196 200 202 200 196 197 196 192 187 191 186 183 180 181 184 183 189 186 203 213 176 146 139 118 266 91 302
234 218 242 255 249 240 214 210 220 234 252 261 313 288 324 135 201 189 185 192 196 194 195 195 191 184 186 184 185 180 175 179 182 187 186 195 198 198 191 217 179 214 168 160
210 210 207 218 215 201 223 239 236 229 230 253 207 272 328 37 190 204 189 187 187 189 191 189 189 186 186 185 184 180 173 178 180 181 186 187 194 196 199 229 218 261 252 223
214 206 196 207 235 228 226 255 272 285 286 275 200 262 11 70 161 184 187 182 183 186 187 188 188 186 186 184 182 178 174 177 176 176 178 183 197 208 191 205 254 251 287 320
232 214 177 204 234 251 230 245 277 275 272 275 263 239 213 172 184 182 181 181 184 187 186 185 185 183 183 181 180 178 173 173 174 175 176 181 191 198 189 189 223 235 260 256
251 244 206 191 203 220 265 257 244 260 277 274 263 250 248 183 195 190 186 183 179 180 177 176 177 177 177 177 175 176 176 174 173 173 183 175 184 190 197 213 211 236 248 269
239 239 217 210 225 224 212 228 252 267 273 276 278 281 64 144 205 205 189 180 175 181 175 170 168 168 171 173 172 174 175 175 173 178 180 184 185 186 194 206 218 219 234 242
233 245 241 231 230 269 247 246 242 251 254 262 275 284 94 127 188 199 185 171 171 175 170 165 162 161 166 170 172 172 175 176 175 174 180 187 192 196 201 202 214 220 228 241
222 241 235 223 205 205 227 232 240 251 256 257 262 262 125 128 202 191 179 167 166 174 171 164 161 162 165 167 170 173 177 176 175 175 183 187 197 204 212 213 216 224 234 247
248 240 251 258 263 227 221 223 232 244 249 255 257 271 266 278 266 237 203 183 173 171 172 170 166 166 165 167 169 174 176 176 176 180 189 189 201 211 218 222 224 228 237 245
247 243 247 261 266 258 251 239 230 239 256 267 275 276 283 303 304 271 218 195 180 173 175 174 173 167 167 170 173 174 173 175 178 181 189 194 201 209 221 228 234 232 239 245
258 254 246 245 245 247 249 248 244 244 254 260 267 272 292 304 298 272 220 201 192 186 183 177 174 172 173 174 173 171 175 177 181 187 190 189 200 209 220 229 232 234 240 250
236 242 247 246 239 246 243 242 243 244 250 262 265 279 291 289 292 275 231 211 205 195 186 182 180 180 178 175 171 177 176 176 180 186 189 190 202 210 217 229 227 234 240 245
240 244 248 250 241 244 249 250 252 251 255 265 274 277 277 282 281 261 250 233 218 205 196 191 188 184 180 172 170 174 177 181 187 193 194 197 208 212 217 227 234 240 244 248
231 233 244 247 243 245 228 229 247 252 253 271 272 273 287 301 268 214 45 279 244 218 208 196 188 180 172 170 170 178 189 194 201 204 204 204 212 220 225 229 236 244 245 247
203 222 239 239 249 249 233 207 241 251 240 281 287 287 290 278 263 244 39 326 296 228 200 186 177 174 165 166 176 192 200 203 211 212 212 209 215 224 231 233 238 242 247 250
199 210 228 237 246 251 254 197 209 236 263 11 319 306 288 286 313 337 317 297 238 208 183 180 178 174 167 167 177 199 208 211 214 214 214 216 221 229 229 229 233 237 242 251
224 221 221 233 243 238 136 198 228 331 7 346 329 315 307 321 341 333 313 284 235 196 179 177 175 172 167 172 181 194 208 210 207 214 220 220 225 238 228 225 232 235 241 241
240 258 252 248 259 32 232 194 39 333 314 325 325 325 324 325 332 334 319 289 259 225 190 183 179 174 176 181 184 193 197 204 208 218 227 229 228 231 233 230 231 234 233 246
217 250 252 246 234 241 239 241 256 282 297 306 306 309 307 304 311 319 316 309 286 249 200 197 189 179 178 185 191 186 187 207 218 229 231 226 228 230 227 236 239 247 251 258
255 239 239 243 247 249 230 240 267 292 299 298 296 293 291 289 283 285 279 294 296 274 234 208 201 190 182 184 196 193 181 199 222 233 244 244 240 238 240 243 258 259 267 275
235 243 251 258 255 267 261 274 274 279 287 293 293 288 283 279 275 271 268 267 272 275 281 236 216 206 195 192 190 198 196 214 227 229 239 259 264 258 255 254 256 252 245 231